Torna al catalogo

SL-16 DEB

AttivoLEO
NORAD 49050·DEBRIS·🇷🇺 Russia

Lanciato Dec 25, 1992 da Baikonur Cosmodrome

Loading…

Prossimi Passaggi (prossime 24 ore)

TLE

AggiornatoSource: Space-Track

Epoca: Sep 14, 2026, 12:20 UTC

1 49050U 92093LX  26257.51420567  .00010520  00000-0  42865-2 0  9998
2 49050  71.0085 319.6909 0012205 329.1590  30.8821 14.27540599 45958

Traccia SL-16 DEB in tempo reale con AllMySat

Download on the App Store